Skip Page Navigation
NASA JPL Caltech
NASA Logo - Jet Propulsion Laboratory + View the NASA Portal
+ Center for Near-Earth Object Studies
JPL Home Earth Solar System Stars & Galaxies Technology
JPL Solar System Dynamics
BODIES ORBITS EPHEMERIDES TOOLS PHYSICAL DATA DISCOVERY FAQ SITE MAP
IMPORTANT: The SSD Announcement email list is now available. Major changes are coming in the near future, including possible hostname and/or URL changes. To be notified of such changes, subscribe to this email list.

Please visit this page for more details.


JPL Small-Body Database Browser
Search: [ help ]  
154523 (2003 FF92)
Classification: Main-belt Asteroid          SPK-ID: 2154523
Ephemeris | Orbit Diagram | Orbital Elements | Mission Design | Physical Parameters | Discovery Circumstances | Close-Approach Data ]

[ show orbit diagram ]
Orbital Elements at Epoch 2459000.5 (2020-May-31.0) TDB
Reference: JPL 14 (heliocentric ecliptic J2000)
 Element Value Uncertainty (1-sigma)   Units 
e .07300821474429253 5.3024e-08  
a 2.623168180027697 2.0563e-08 au
q 2.43165535422984 1.3861e-07 au
i 11.72227403633701 6.5549e-06 deg
node 175.062064907732 2.9415e-05 deg
peri 346.0003382017336 5.5934e-05 deg
M 43.76586633142586 5.0586e-05 deg
tp 2458811.843983924074
(2019-Nov-24.34398392)
0.00021726 TDB
period 1551.806727028424
4.25
1.8246e-05
4.995e-08
d
yr
n .231987652669459 2.7278e-09 deg/d
Q 2.814681005825554 2.2064e-08 au
  Orbit Determination Parameters
   # obs. used (total)      333  
   data-arc span      6297 days (17.24 yr)  
   first obs. used      2001-11-15  
   last obs. used      2019-02-11  
   planetary ephem.      DE431  
   SB-pert. ephem.      SB431-N16  
   condition code      0  
   norm. resid. RMS      .63951  
   source      ORB  
   producer      Otto Matic  
   solution date      2019-Jul-13 10:01:36  

Additional Information
 Earth MOID = 1.44034 au 
 Jupiter MOID = 2.15749 au 
 T_jup = 3.370 
[ show covariance matrix ]

Ephemeris | Orbit Diagram | Orbital Elements | Mission Design | Physical Parameters | Discovery Circumstances | Close-Approach Data ]

Physical Parameter Table
Parameter Symbol Value Units Sigma Reference Notes
absolute magnitude H 15.9   n/a MPO426967  

154523 (2003 FF92)          Discovered 2003-Mar-29 by LONEOS at Anderson Mesa
Reference: 20070402/Numbers.arcLast Updated: 2007-04-04

[ show close-approach data ]
Alternate Designations
 2003 FF92 = 2001 YS145 
Ephemeris | Orbit Diagram | Orbital Elements | Mission Design | Physical Parameters | Discovery Circumstances | Close-Approach Data ]
ABOUT SSD CREDITS/AWARDS PRIVACY/COPYRIGHT GLOSSARY LINKS
FirstGov 2020-Feb-19 07:32 UT
(server date/time)  
NASA Home Page
Site Manager:   Ryan S. Park
Webmaster  Alan B. Chamberlin